Overview Statistics Trail Chart Weather Telemetry Raw packets
 

This is the latest recevied weather packets stored in our database for station/object KB1WCR. If no packets are shown the sender has not sent any weather packets the latest 10 day(s).

<< 57 58 59 60 61 62 63 >>
Time Temp. Humidity Pressure Rain* Wind** Luminosity Snow
1788008278 20° C 69% 1022.5 hPa 0 mm - 380 W/m² -
1788007976 19.44° C 71% 1022.2 hPa 0 mm - 362 W/m² -
1788007675 19.44° C 70% 1022.2 hPa 0 mm - 347 W/m² -
1788007371 19.44° C 71% 1022.4 hPa 0 mm - 332 W/m² -
1788007065 18.89° C 75% 1022.4 hPa 0 mm - 315 W/m² -
1788006764 18.89° C 75% 1022.2 hPa 0 mm - 302 W/m² -
1788006458 18.89° C 75% 1022.3 hPa 0 mm - 287 W/m² -
1788006152 18.33° C 77% 1022.1 hPa 0 mm - 272 W/m² -
1788005851 17.78° C 78% 1022.1 hPa 0 mm - 258 W/m² -
1788005546 17.78° C 79% 1022.2 hPa 0 mm - 242 W/m² -
1788005245 17.78° C 80% 1022.1 hPa 0 mm - 230 W/m² -
1788004944 17.78° C 82% 1022.2 hPa 0 mm - 214 W/m² -
1788004643 17.22° C 82% 1022.1 hPa 0 mm - 159 W/m² -
1788004345 16.67° C 83% 1022.2 hPa 0 mm - 127 W/m² -
1788004032 16.11° C 85% 1022.2 hPa 0 mm - 106 W/m² -
1788003732 15.56° C 89% 1022.1 hPa 0 mm - 92 W/m² -
1788003427 14.44° C 94% 1022 hPa 0 mm - 82 W/m² -
1788003126 13.89° C 96% 1021.9 hPa 0 mm - 70 W/m² -
1788002821 13.33° C 96% 1022 hPa 0 mm - 68 W/m² -
1788002516 13.89° C 94% 1021.9 hPa 0 mm - 32 W/m² -
1788002212 13.33° C 99% 1021.8 hPa 0 mm - 43 W/m² -
1788001912 12.78° C 99% 1021.8 hPa 0 mm - 53 W/m² -
1788001606 11.67° C 99% 1021.5 hPa 0 mm - 50 W/m² -
1788001296 11.11° C 99% 1021.6 hPa 0 mm - 29 W/m² -
1788000996 10.56° C 99% 1021.6 hPa 0 mm - 26 W/m² -

* Rain latest hour (hover to see other rain measurements)
** Current wind speed in m/s (hover to see current wind gust speed)